This demonstration page uses our WeatherBlox Daily Observations layout. Learn more.

Left ArrowRight Arrow

Hourly Observations for June 15, 2017

Temp ( °F °C ) Dew Point ( °F °C ) Humidity (%) Winds ( mph kmh ) Pressure ( in mb ) Visibility ( mi km ) Precip ( " mm )
12:53 am 00:53 Clear 70 21.1 70 21.1 100 100 Calm 30.01 1016 10 16 0.00 0.00
1:53 am 01:53 Clear 72 22.2 71 21.7 97 97 Calm 30.00 1016 10 16 0.00 0.00
2:53 am 02:53 Clear 70 21.1 70 21.1 100 100 Calm 29.98 1015 10 16 0.00 0.00
3:53 am 03:53 Clear 70 21.1 70 21.1 100 100 Calm 29.96 1015 10 16 0.00 0.00
4:53 am 04:53 Clear 71 21.7 71 21.7 100 100 Calm 29.97 1015 10 16 0.00 0.00
5:53 am 05:53 Clear 70 21.1 70 21.1 100 100 Calm 29.97 1015 10 16 0.00 0.00
6:53 am 06:53 Sunny 70 21.1 70 21.1 100 100 Calm 29.98 1015 9 14 0.00 0.00
7:53 am 07:53 Sunny 71 21.7 70 21.1 96 96 SSW 3 6 30.00 1016 10 16 0.00 0.00
8:53 am 08:53 Mostly Cloudy 74 23.3 71 21.7 91 91 Calm 30.01 1016 10 16 0.00 0.00
9:53 am 09:53 Mostly Cloudy 77 25 72 22.2 85 85 W 5 7 30.01 1016 10 16 0.00 0.00
10:53 am 10:53 Mostly Cloudy 83 28.3 74 23.3 74 74 Calm 30.01 1016 10 16 0.00 0.00
11:53 am 11:53 Partly Cloudy 85 29.4 73 22.8 68 68 VRB 5 7 29.99 1016 10 16 0.00 0.00
12:53 pm 12:53 Partly Cloudy 86 30 73 22.8 65 65 WNW 8 13 29.97 1015 10 16 0.00 0.00
1:53 pm 13:53 Partly Cloudy 88 31.1 70 21.1 55 55 VRB 3 6 29.94 1014 10 16 0.00 0.00
2:53 pm 14:53 Partly Cloudy 90 32.2 70 21.1 52 52 VRB 6 9 29.91 1013 10 16 0.00 0.00
3:51 pm 15:51 Partly Cloudy with Nearby Thunderstorms 90 32 70 21 52 52 W 5 7 29.88 1012 10 16 0.00 0.00
3:53 pm 15:53 Partly Cloudy with Nearby Thunderstorms 89 31.7 69 20.6 52 52 W 6 9 29.90 1012 10 16 0.00 0.00
4:06 pm 16:06 Partly Cloudy 90 32.2 70 21.1 52 52 WNW 9 15 29.85 1011 10 16 0.00 0.00
4:53 pm 16:53 Partly Cloudy 90 32.2 70 21.1 52 52 VRB 5 7 29.87 1012 10 16 0.00 0.00
5:53 pm 17:53 Partly Cloudy with Nearby Thunderstorms 88 31.1 70 21.1 55 55 W 12 19 29.86 1011 10 16 0.00 0.00
6:06 pm 18:06 Windy with Storms Likely 81 27.2 69 20.6 67 67 NNW 31 50 29.91 1013 8 13 0.02 0.51
6:10 pm 18:10 Mostly Cloudy with Strong Thunderstorms 73 22.8 67 19.4 81 81 NW 26 43 29.91 1013 2 3 0.13 3.30
6:15 pm 18:15 Mostly Cloudy with Strong Thunderstorms 71 21.7 68 20 90 90 NW 26 43 29.91 1013 1 1 0.41 10.41
6:18 pm 18:18 Mostly Cloudy with Strong Thunderstorms 70 21.1 68 20 93 93 NW 26 43 29.91 1013 0 0 0.61 15.49
6:29 pm 18:29 Cloudy with Strong Thunderstorms 70 21.1 69 20.6 97 97 NNW 13 20 29.91 1013 1 1 1.00 25.40
6:38 pm 18:38 Cloudy with Thunderstorms 69 20.6 69 20.6 100 100 NW 12 19 29.91 1013 2 2 1.09 27.69
6:42 pm 18:42 Cloudy with Thunderstorms 69 20.6 69 20.6 100 100 NW 9 15 29.91 1013 3 5 1.10 27.94
6:48 pm 18:48 Cloudy with Nearby Thunderstorms 70 21 70 21 100 100 NW 9 15 29.88 1012 8 13 1.10 27.94
6:53 pm 18:53 Mostly Cloudy with Nearby Thunderstorms 70 21.1 70 21.1 100 100 NNW 9 15 29.90 1012 10 16 1.10 27.94
7:07 pm 19:07 Partly Cloudy 72 22.2 71 21.7 97 97 VRB 3 6 29.91 1013 10 16 0.00 0.03
7:53 pm 19:53 Cloudy with Nearby Thunderstorms 72 22.2 71 21.7 97 97 ESE 3 6 29.91 1013 10 16 0.00 0.03
8:11 pm 20:11 Cloudy 72 22.2 69 20.6 91 91 WSW 3 6 29.91 1013 10 16 0.00 0.00
8:53 pm 20:53 Clear 71 21.7 68 20 90 90 SSW 5 7 29.93 1014 10 16 0.00 0.00
9:53 pm 21:53 Clear 71 21.7 68 20 90 90 S 3 6 29.93 1014 10 16 0.00 0.00
10:53 pm 22:53 Clear 69 20.6 68 20 96 96 Calm 29.91 1013 10 16 0.00 0.00
11:53 pm 23:53 Clear 68 20 68 20 100 100 NNW 3 6 29.91 1013 10 16 0.00 0.00

Powered by AerisWeather